STARLINK-5832, 57063

Orbit data source: Space-Track

STARLINK-5832, 57063 is a payload satellite owned by SpaceX/Seattle (US) in LEO that was launched on Thu, 22 Jun 2023 UTC via an FALCON 9 launch vehicle from the Air Force Western Test Range (AFWTR). Payload-class satellites include a variety of spacecraft equipped with specific instruments for various scientific and technological missions. These include communications satellites like Starlink; space stations such as the ISS; scientific satellites like the Hubble; Earth observation satellites from companies like Planet Labs, Umbra, and HawkEye 360; GPS; miniature CubeSats for education and research; and military/defense satellites.

Loading next visibility...
Identifier
57063, 2023-088R
Orbit
LEO
Country
Flag of USUS
Related business
Manufacturer
SpaceX/Seattle
Mission
Operational Commercial Communications
Bus & Motor
STARLINK, Unknown motor
Mass
305 kg wet, ~290 kg dry
Launch date (UTC)
Icon of a cake. It is the launch day of the satellite!2023-06-22 (3 years ago)
Launch vehicle
FALCON 9
Launch site
Air Force Western Test Range (AFWTR)
Object type
Payload
Rocket body
Debris
Shape & HBR
Box + 1 Pan, 10.1 m
Radar Cross Section
11.087 m², Large (>1 m²)

Expand to show TLE details & history
Last TLE update: 2 days ago

TLE from 2 days ago
0 STARLINK-5832
1 57063U 23088R   26171.48327946  .00002006  00000-0  82467-4 0  9991
2 57063  43.0010 250.1027 0002600 271.8514  88.2040 15.27564689166057
Epoch: 2026-06-20T11:35Z
TLE epoch observation values (Epoch: 2026-06-20T11:35:55.345Z)
Latitude
-0°
Longitude
167.42484°
Altitude
482.815 km
Speed
7.626 km/s
True Right ascension
16h 40m 24s
True Declination
0° 00' 00"
Sunlit
Object was in full shadow at epoch
Visualization orbit readout
Latitude
Unknown
Longitude
Unknown
Altitude
Unknown
Speed
Unknown
Apparent Right ascension
Unknown
Apparent Declination
Unknown
Sunlit
N/A
Visualization observer readout
Local Sidereal Time
21:30:42
Azimuth
Unknown
Elevation
Unknown
Doppler factor
Unknown
Orbital elements
Apogee altitude
486.824 km
Perigee altitude
483.256 km
Semi-major axis
6,863.177 km
Eccentricity
0.00026
Inclination
43.001°
RAAN
250.1027°
Arg. of periapsis
271.8514°
True anomaly
88.23378°
Mean anomaly
88.204°
Eccentric anomaly
88.21889°
Mean motion
3.81729 °/min
Orbital period
94.31 mins
BSTAR
0.000082467
Loading maneuver chart data...
Computing Atmospheric mass density...
Loading historical data...
Loading historical data...
Loading historical data...
Loading historical data...
Loading historical data...
Loading historical data...
Loading historical data...

Documentation

Showing up to 5 results
|